Location: Chuathbaluk
(61.5726°N, 159.2454°W)
Time: 04:37:04
(UTC+00:00)

FO-99 - Pass Details

Date: 19 January 2021
Orbit: 473 x 506 km, 97.2° (Epoch: 08 March)

Event Time Altitude Azimuth Distance (km) Brightness Sun altitude
Rises 18:16:04 0° 26° (NNE) 2,582 ? -7.8°
Reaches altitude 10° 18:19:20 10° 58° (ENE) 1,684 ? -7.4°
Maximum altitude 18:20:49 12° 83° (E) 1,548 ? -7.3°
Drops below altitude 10° 18:22:19 10° 107° (ESE) 1,671 ? -7.1°
Sets 18:25:30 0° 140° (SE) 2,536 ? -6.8°
